This demonstration page uses our WeatherBlox Daily Observations layout. Learn more.

Left ArrowRight Arrow

39.08367, -84.50855

Hourly Observations for April 19, 2020

Temp ( °F °C ) Dew Point ( °F °C ) Humidity (%) Winds ( mph kmh ) Pressure ( in mb ) Visibility ( mi km ) Precip ( " mm )
12:53 am 00:53 Clear 41 5 33 0.6 73 73 S 8 13 29.97 1015 10 16 0.00 0.00
1:53 am 01:53 Clear 40 4.4 33 0.6 77 77 S 7 11 29.94 1014 10 16 0.00 0.00
2:53 am 02:53 Clear 38 3.3 32 0 79 79 S 7 11 29.93 1014 10 16 0.00 0.00
3:53 am 03:53 Clear 39 3.9 33 0.6 79 79 Calm 29.93 1014 10 16 0.00 0.00
4:53 am 04:53 Clear 36 2.2 33 0.6 89 89 Calm 29.93 1014 10 16 0.00 0.00
5:53 am 05:53 Clear with Mist and Fog 35 1.7 34 1.1 96 96 Calm 29.93 1014 6 10 0.00 0.00
6:53 am 06:53 Clear with Mist and Fog 34 1.1 33 0.6 97 97 Calm 29.93 1013 4 6 0.00 0.00
7:53 am 07:53 Partly Cloudy with Mist and Fog 37 2.8 36 2.2 96 96 Calm 29.92 1013 4 6 0.00 0.00
8:53 am 08:53 Sunny 43 6.1 37 2.8 80 80 Calm 29.92 1013 10 16 0.00 0.00
9:53 am 09:53 Sunny 48 8.9 38 3.3 68 68 SSW 6 9 29.90 1013 10 16 0.00 0.00
10:53 am 10:53 Sunny 52 11.1 39 3.9 61 61 S 7 11 29.89 1012 10 16 0.00 0.00
11:53 am 11:53 Mostly Sunny 54 12.2 41 5 62 62 S 8 13 29.89 1012 10 16 0.00 0.00
12:53 pm 12:53 Cloudy with Light Rain 52 11.1 43 6.1 72 72 SSE 3 6 29.85 1011 10 16 0.00 0.00
1:53 pm 13:53 Partly Cloudy 54 12.2 42 5.6 64 64 SSW 7 11 29.83 1010 10 16 0.00 0.00
2:53 pm 14:53 Partly Cloudy 57 13.9 42 5.6 58 58 S 8 13 29.82 1010 10 16 0.00 0.00
3:53 pm 15:53 Cloudy with Light Rain 58 14.4 41 5 53 53 SW 8 13 29.81 1009 10 16 0.00 0.00
4:53 pm 16:53 Cloudy 58 14.4 43 6.1 58 58 WSW 8 13 29.79 1009 10 16 0.00 0.00
5:53 pm 17:53 Cloudy 58 14.4 41 5 53 53 SW 8 13 29.80 1009 10 16 0.00 0.00
6:53 pm 18:53 Partly Cloudy 58 14.4 41 5 53 53 W 6 9 29.80 1009 10 16 0.00 0.00
7:53 pm 19:53 Sunny 54 12.2 40 4.4 59 59 SW 5 7 29.78 1009 10 16 0.00 0.00
8:53 pm 20:53 Clear 48 8.9 43 6.1 83 83 Calm 29.79 1009 10 16 0.00 0.00
9:53 pm 21:53 Clear 47 8.3 42 5.6 83 83 Calm 29.79 1009 10 16 0.00 0.00
10:53 pm 22:53 Clear 45 7.2 42 5.6 90 90 Calm 29.78 1009 10 16 0.00 0.00
11:53 pm 23:53 Clear 43 6.1 41 5 93 93 Calm 29.78 1009 10 16 0.00 0.00

Powered by AerisWeather